Regional Weather Roundup
Issued by NWS

Home | Current Version | Previous Version | Graphics & Text | Print | Product List | Glossary On
Versions: 1 2 3 4 5 6 7 8 9 10 11 12 13 14 15 16 17 18 19 20 21 22 23 24 25 26 27 28 29 30 31 32 33 34 35 36 37 38 39 40 41 42 43 44 45 46 47 48 49 50
673
ASUS43 KOAX 222010
RWRNE

WEATHER ROUNDUP FOR NEBRASKA
NATIONAL WEATHER SERVICE OMAHA NE
300 PM CDT THU JUN 22 2017

NOTES: SATELLITE DATA IS BEING USED TO AUGMENT CLOUD COVER ABOVE
       12000 FEET.
       "FAIR" INDICATES FEW OR NO CLOUDS BELOW 12,000 FEET WITH NO
       SIGNIFICANT WEATHER AND/OR OBSTRUCTIONS TO VISIBILITY.

  * THESE STATIONS DO NOT REPORT WEATHER SUCH AS RAIN...SNOW OR FOG.

NEZ001>004-019>022-054>056-222100-
NEBRASKA PANHANDLE

CITY           SKY/WX    TMP DP  RH WIND       PRES   REMARKS
SCOTTSBLUFF    MOSUNNY   81  49  32 N16G23    29.91F
ALLIANCE       PTSUNNY   76  56  49 N17G24    29.91S
CHADRON        SUNNY     77  48  35 NE10      29.92S
GORDON         CLOUDY    72  53  50 N15       29.91F
KIMBALL        SUNNY     80  51  36 N16G24    29.94R
SIDNEY         SUNNY     81  53  37 NE24G35   29.90F
$$

NEZ057>060-069>072-079>082-222100-
SOUTHWEST NEBRASKA

CITY           SKY/WX    TMP DP  RH WIND       PRES   REMARKS
NORTH PLATTE   SUNNY     86  58  38 N22G30    29.78R
IMPERIAL       SUNNY     87  56  34 N23G32    29.80S
LEXINGTON      MOSUNNY   87  67  50 N23       29.72R
MCCOOK         SUNNY     96  62  32 N23G30    29.70R HX  97
OGALLALA       SUNNY     85  55  36 NE17G26   29.84S
$$

NEZ005>010-023>029-035>040-094-222100-
NORTH CENTRAL NEBRASKA

CITY           SKY/WX    TMP DP  RH WIND       PRES   REMARKS
VALENTINE      CLOUDY    71  50  47 N16       29.88S
AINSWORTH      CLOUDY    72  57  58 N18G24    29.85S
BROKEN BOW     MOSUNNY   81  60  48 NE24G32   29.76R
O`NEILL        CLOUDY    80  61  52 N15G22    29.79R
ORD            PTSUNNY   82  60  47 NE21G30   29.72R
THEDFORD       CLOUDY    76  58  53 N16G26    29.85S
$$

NEZ041-046>049-061>064-073>077-083>087-222100-
SOUTH CENTRAL NEBRASKA

CITY           SKY/WX    TMP DP  RH WIND       PRES   REMARKS
GRAND ISLAND   CLOUDY    88  66  48 E8        29.65R HX  90
AURORA         CLOUDY    87  66  50 SW7       29.65R
HASTINGS       CLOUDY    89  61  38 W3        29.66S
HEBRON         PTSUNNY   93  60  33 S13G18    29.61F HX  93
HOLDREGE       MOSUNNY   89  58  35 N14       29.68R
KEARNEY *      CLOUDY    91  63  38 N17       29.68R HX  92
YORK           CLOUDY    88  66  48 SW8       29.64S HX  90
$$

NEZ011>018-030>034-042>045-222100-
NORTHEAST NEBRASKA

CITY           SKY/WX    TMP DP  RH WIND       PRES   REMARKS
NORFOLK        CLOUDY    84  63  49 NE10      29.66S
ALBION         PTSUNNY   85  65  51 N14G20    29.69R
BLAIR          MOSUNNY   88  68  50 S9        29.65R HX  91
FREMONT        MOSUNNY   87  66  49 S5        29.64S
TEKAMAH        CLOUDY    88  65  46 S10       29.64R HX  90
WAYNE          CLOUDY    85  66  52 NE13      29.67F
$$

NEZ050>053-065>068-078-088>093-222100-
SOUTHEAST NEBRASKA

CITY           SKY/WX    TMP DP  RH WIND       PRES   REMARKS
LINCOLN        MOSUNNY   88  68  51 SW12      29.63F HX  91
OMAHA EPPLEY   PTSUNNY   89  68  49 S12       29.62F HX  93
BEATRICE       CLOUDY    89  67  48 S9G21     29.63R HX  92
FALLS CITY     SUNNY     89  69  51 S14G23    29.65F HX  93
NEBRASKA CITY  MOSUNNY   89  69  50 S15G22    29.64F HX  94
PLATTSMOUTH    MOSUNNY   87  66  49 S7        29.63F HX  90
$$

NEZ044-045-051>053-067-222100-
OMAHA AREA

CITY           SKY/WX    TMP DP  RH WIND       PRES   REMARKS
OMAHA EPPLEY   PTSUNNY   89  68  49 S12       29.62F HX  93
BLAIR          MOSUNNY   88  68  50 S9        29.65R HX  91
FREMONT        MOSUNNY   87  66  49 S5        29.64S
MILLARD        CLOUDY    91  72  53 S8        29.63S HX  97
OFFUTT AFB     PTSUNNY   88  69  52 S10       29.63F HX  92
PLATTSMOUTH    MOSUNNY   87  66  49 S7        29.63F HX  90
WAHOO          FAIR      89  64  42 S9        29.64S HX  90
$$




USA.gov is the U.S. government's official web portal to all federal, state and local government web resources and services.